DateTimeUTC,F1_A11,F1_S11,BsB_S11,BsG_S11,BsR_S11,BbsB_S11,BbsG_S11,BbsR_S11,BaB_A11,BaG_A11,BaR_A11,Tu_S11,T_S11,Uu_S11,U_S11,P_S11,T1_A11
2021-06-08T00:00:00Z,00000200,20000000,,,,,,,-000.45,-000.21,0000.13,17.3,24.4,02.9,01.9,0670.7,31.0
2021-06-08T00:01:00Z,00000200,20000000,,,,,,,0000.20,0000.20,-000.32,17.2,24.5,03.0,01.9,0670.7,31.0
2021-06-08T00:02:00Z,00000200,20000000,,,,,,,-000.16,-000.11,-000.04,17.2,24.5,03.0,01.9,0670.7,30.9
2021-06-08T00:03:00Z,00000200,60000000,,,,,,,0000.17,0000.11,0000.37,17.2,24.5,03.0,01.9,0670.7,30.9
2021-06-08T00:04:00Z,00000200,40000000,0003.52,0002.40,0001.63,0000.67,0000.44,0000.36,-000.01,-000.22,0000.05,17.3,24.2,02.8,01.8,0671.7,31.0
2021-06-08T00:05:00Z,00000200,00000000,0004.26,0002.72,0001.12,0001.19,0000.56,0000.07,0000.18,0000.07,0000.19,17.4,24.2,02.7,01.7,0671.8,31.0
2021-06-08T00:06:00Z,00000200,00000000,0003.75,0002.67,0001.50,0000.63,0000.49,0000.40,-000.11,0000.38,0000.25,17.4,24.1,02.6,01.7,0671.8,31.0
2021-06-08T00:07:00Z,00000200,00000000,0003.74,0002.56,0001.10,0000.35,0000.07,0000.09,0000.38,0000.26,0000.16,17.4,24.1,02.8,01.8,0671.8,31.0
2021-06-08T00:08:00Z,00000200,00000000,0003.71,0002.47,0001.52,0000.86,0000.21,0000.54,0000.75,0000.69,0000.23,17.4,24.1,02.7,01.8,0671.8,30.9
2021-06-08T00:09:00Z,00000200,00000000,0004.10,0002.86,0001.48,0000.93,0000.42,0000.45,0000.26,0000.21,0000.32,17.3,24.1,02.6,01.7,0671.8,31.0
2021-06-08T00:10:00Z,00000200,00000000,0003.90,0002.75,0001.66,0000.71,0000.53,0000.55,-000.04,-000.00,0000.09,17.3,24.1,02.7,01.8,0671.8,31.0
2021-06-08T00:11:00Z,00000200,00000000,0004.55,0002.53,0001.92,0000.39,0000.67,0000.52,0000.38,0000.18,0000.53,17.3,24.1,02.6,01.7,0671.8,30.9
2021-06-08T00:12:00Z,00000200,00000000,0004.04,0002.65,0001.62,0000.60,0000.44,0000.31,0000.69,0000.08,-000.11,17.3,24.1,02.6,01.7,0671.8,31.0
2021-06-08T00:13:00Z,00000200,00000000,0004.68,0002.63,0001.81,0000.79,0000.41,0000.39,0000.29,0000.60,0000.57,17.3,24.1,02.6,01.7,0671.8,30.9
2021-06-08T00:14:00Z,00000200,00000000,0004.46,0002.77,0001.48,0000.40,0000.48,0000.39,0000.03,0000.36,0000.26,17.3,24.0,02.7,01.8,0671.8,30.9
2021-06-08T00:15:00Z,00000200,00000000,0003.42,0002.68,0001.97,-000.25,0000.56,0000.28,0000.11,-000.01,0000.33,17.3,24.0,02.7,01.8,0671.8,31.0
2021-06-08T00:16:00Z,00000200,00000000,0004.12,0002.73,0001.63,0001.25,0000.10,0000.44,0000.12,0000.45,-000.04,17.3,24.0,02.6,01.7,0671.8,31.0
2021-06-08T00:17:00Z,00000200,00000000,0004.45,0002.73,0001.43,0000.72,0000.58,0000.41,0000.32,-000.08,0000.21,17.3,24.0,02.5,01.7,0671.8,31.0
2021-06-08T00:18:00Z,00000200,00000000,0004.53,0002.57,0001.45,0001.23,0000.46,0000.06,0000.09,0000.51,0000.21,17.3,24.0,02.5,01.6,0671.8,31.0
2021-06-08T00:19:00Z,00000200,00000000,0004.23,0002.64,0001.63,0001.32,0000.21,0000.51,0000.32,0000.03,-000.02,17.3,24.0,02.5,01.7,0671.8,31.0
2021-06-08T00:20:00Z,00000200,00000000,0004.19,0002.78,0001.77,0000.87,0000.57,0000.34,0000.26,0000.19,0000.69,17.3,24.0,02.5,01.6,0671.8,31.0
2021-06-08T00:21:00Z,00000200,00000000,0004.45,0002.72,0001.37,0000.65,0000.34,0000.39,0000.23,0000.05,-000.08,17.3,24.0,02.4,01.6,0671.8,30.9
2021-06-08T00:22:00Z,00000200,00000000,0003.49,0002.29,0001.31,0000.44,0000.36,0000.23,0000.03,0000.47,0000.10,17.3,24.0,02.3,01.5,0671.8,31.0
2021-06-08T00:23:00Z,00000200,00000000,0003.29,0002.15,0000.97,0000.27,0000.42,0000.26,0000.37,0000.27,0000.60,17.3,24.0,02.3,01.5,0671.8,31.0
2021-06-08T00:24:00Z,00000200,00000000,0003.30,0001.81,0001.25,0000.49,0000.35,0000.38,0000.29,0000.58,0000.19,17.3,24.0,02.4,01.6,0671.8,30.9
2021-06-08T00:25:00Z,00000200,00000000,0003.49,0001.96,0000.94,0000.56,0000.60,0000.09,0000.13,-000.32,-000.00,17.3,24.0,02.4,01.6,0671.8,31.0
2021-06-08T00:26:00Z,00000200,00000000,0003.77,0002.10,0001.07,0000.58,0000.55,0000.23,0000.47,0000.39,0000.52,17.3,24.0,02.5,01.6,0671.8,31.0
2021-06-08T00:27:00Z,00000200,00000000,0003.42,0002.04,0001.32,0000.63,0000.22,0000.26,0000.05,0000.36,0000.08,17.3,24.0,02.4,01.6,0671.8,31.0
2021-06-08T00:28:00Z,00000200,00000000,0003.55,0002.18,0001.24,0000.25,0000.19,0000.52,0000.15,0000.14,0000.39,17.3,24.0,02.4,01.6,0671.8,31.0
2021-06-08T00:29:00Z,00000200,00000000,0003.17,0002.05,0001.33,0000.38,0000.19,0000.38,0000.43,0000.22,-000.03,17.3,24.0,02.3,01.5,0671.8,31.0
2021-06-08T00:30:00Z,00000200,00000000,0003.87,0002.31,0001.17,0000.43,0000.36,0000.49,0000.08,0000.29,0000.44,17.3,24.0,02.4,01.6,0671.8,30.9
2021-06-08T00:31:00Z,00000200,00000000,0003.15,0002.20,0001.45,0000.25,0000.51,0000.39,0000.28,-000.15,-000.40,17.3,24.0,02.3,01.5,0671.8,30.9
2021-06-08T00:32:00Z,00000200,00000000,0003.06,0002.03,0001.10,0000.19,0000.20,0000.28,0000.01,-000.13,0000.26,17.3,23.9,02.2,01.5,0671.8,31.0
2021-06-08T00:33:00Z,00000200,00000000,0003.74,0002.18,0001.32,0001.01,0000.20,0000.19,0000.08,0000.44,0000.05,17.3,23.9,02.3,01.5,0671.8,30.9
2021-06-08T00:34:00Z,00000200,00000000,0002.98,0002.05,0001.09,0000.46,0000.27,0000.28,0000.22,0000.27,0000.65,17.3,24.0,02.4,01.6,0671.8,30.9
2021-06-08T00:35:00Z,00000200,00000000,0002.67,0002.15,0001.02,0000.67,0000.48,0000.43,0000.35,0000.36,0000.14,17.3,23.9,02.3,01.5,0671.8,30.9
2021-06-08T00:36:00Z,00000200,00000000,0002.26,0001.79,0001.02,0000.32,0000.11,0000.33,0000.19,-000.01,0000.04,17.3,23.9,02.1,01.4,0671.8,31.0
2021-06-08T00:37:00Z,00000200,00000000,0002.79,0002.13,0001.24,0000.84,0000.38,0000.49,0000.07,0000.38,0000.08,17.3,23.9,02.1,01.4,0671.8,30.9
2021-06-08T00:38:00Z,00000200,00000000,0002.86,0001.73,0000.82,-000.02,0000.20,0000.16,0000.45,0000.11,0000.34,17.2,23.9,02.1,01.4,0671.8,30.9
2021-06-08T00:39:00Z,00000200,00000000,0003.16,0001.67,0000.99,0000.50,0000.32,0000.06,0000.03,0000.07,0000.20,17.2,23.9,02.2,01.4,0671.8,30.9
2021-06-08T00:40:00Z,00000200,00000000,0002.99,0001.73,0000.87,0000.48,0000.52,0000.28,0000.38,0000.45,0000.33,17.2,23.9,02.2,01.4,0671.8,30.9
2021-06-08T00:41:00Z,00000200,00000000,0001.97,0001.61,0001.00,0000.58,0000.36,-000.04,-000.17,-000.18,0000.09,17.2,23.9,02.1,01.4,0671.8,30.9
2021-06-08T00:42:00Z,00000200,00000000,0002.79,0001.86,0001.04,0000.32,0000.58,0000.30,0000.36,0000.20,0000.01,17.2,23.9,02.1,01.4,0671.8,30.9
2021-06-08T00:43:00Z,00000200,00000000,0002.52,0001.60,0000.92,0000.39,0000.11,0000.38,0000.11,0000.17,0000.15,17.2,23.9,02.1,01.4,0671.8,30.9
2021-06-08T00:44:00Z,00000200,00000000,0002.56,0001.50,0000.68,0000.45,0000.47,0000.38,-000.09,0000.32,0000.09,17.2,23.9,02.0,01.3,0671.8,30.9
2021-06-08T00:45:00Z,00000200,00000000,0002.56,0001.45,0001.03,0000.26,0000.20,0000.36,0000.48,-000.17,0000.27,17.2,23.9,02.0,01.3,0671.8,30.9
2021-06-08T00:46:00Z,00000200,01000000,0001.95,0001.65,0000.48,0001.13,0000.40,0000.12,-000.10,0000.34,0000.04,17.2,23.9,02.0,01.3,0671.8,30.9
2021-06-08T00:47:00Z,00000200,01000000,0002.21,0001.65,0001.22,0000.46,0000.15,0000.28,0000.26,-000.10,0000.29,17.2,23.9,01.9,01.3,0671.8,30.9
2021-06-08T00:48:00Z,00000200,01000000,0003.36,0001.63,0000.83,0000.31,0000.19,0000.05,0000.35,0000.40,0000.14,17.2,23.9,01.9,01.3,0671.8,30.9
2021-06-08T00:49:00Z,00000200,00000000,0002.26,0001.29,0000.98,0000.45,0000.27,-000.03,0000.37,0000.32,0000.21,17.2,23.9,01.9,01.3,0671.8,30.9
2021-06-08T00:50:00Z,00000200,01000000,0002.47,0001.56,0000.65,0000.81,0000.29,0000.26,0000.17,0000.15,0000.03,17.2,23.9,01.9,01.3,0671.8,30.9
2021-06-08T00:51:00Z,00000200,00000000,0002.02,0001.29,0000.66,0000.38,0000.16,0000.22,0000.11,-000.02,0000.47,17.2,23.8,01.9,01.3,0671.8,31.0
2021-06-08T00:52:00Z,00000200,00000000,0001.92,0001.41,0000.88,0000.73,0000.19,0000.20,0000.12,0000.16,-000.06,17.2,23.8,01.8,01.2,0671.8,31.0
2021-06-08T00:53:00Z,00000200,01000000,0002.65,0001.53,0000.91,0000.26,-000.00,0000.31,0000.04,0000.45,0000.26,17.2,23.8,01.9,01.3,0671.8,30.9
2021-06-08T00:54:00Z,00000200,01000000,0001.34,0001.43,0000.50,0000.72,0000.22,0000.26,-000.13,-000.17,-000.16,17.2,23.8,01.8,01.2,0671.8,30.9
2021-06-08T00:55:00Z,00000200,01000000,0002.19,0001.44,0000.76,0000.54,0000.16,0000.27,0000.60,0000.21,0000.73,17.1,23.8,01.9,01.2,0671.9,30.9
2021-06-08T00:56:00Z,00000200,01000000,0002.62,0001.32,0000.69,0000.49,0000.45,0000.28,-000.16,0000.20,-000.39,17.2,23.8,01.8,01.2,0671.9,30.9
2021-06-08T00:57:00Z,00000200,40000000,,,,,,,0001.07,0000.64,0000.76,17.2,23.8,01.7,01.1,0671.9,30.9
2021-06-08T00:58:00Z,00000200,60000000,,,,,,,-000.68,-000.28,-000.46,16.9,24.0,01.8,01.1,0670.9,30.9
2021-06-08T00:59:00Z,00000200,20000000,,,,,,,-000.27,-000.67,-000.41,16.9,24.1,01.7,01.1,0670.9,30.9
